Location: Carenno
(45.8000°N, 9.4500°E)
Time: 10:00:29
(UTC+00:00)

Daily predictions for brighter satellites

Satellite Brightness Start Highest point End
(mag) Time Altitude Azimuth Time Altitude Azimuth Time Altitude Azimuth
Cosmos 1315 Rocket 3.2 16:06:19 10° SSE 16:10:06 45° E 16:13:57 10° NNE
Cosmos 2333 4.5 16:04:52 10° S 16:10:23 53° ESE 16:15:59 10° NE
STARLINK-67 2.5 16:08:20 10° SW 16:11:05 79° SSE 16:13:52 10° ENE
ATLAS 2AS CENTAUR R/B 3.2 16:05:12 10° SW 16:13:12 88° NW 16:21:16 10° NE
CZ-4B R/B 3.5 16:08:03 10° S 16:13:21 74° WSW 16:18:46 10° NNW
YAOGAN 6 4.5 16:12:25 10° ENE 16:13:24 11° ENE 16:14:23 10° NE
IRS-1C Rocket 4.3 16:09:29 10° SE 16:14:35 52° ENE 16:19:42 10° N
Cosmos 1346 Rocket 2.8 16:11:25 10° N 16:15:18 56° ENE 16:19:14 10° SSE
Cosmos 2322 3.8 16:10:16 10° SSW 16:15:56 69° ESE 16:21:37 10° NNE
COSMO-SKYMED 1 4.3 16:17:37 10° ENE 16:19:53 14° E 16:22:09 10° ESE
Cosmos 1302 Rocket 4.1 16:16:12 10° NNW 16:21:24 54° ENE 16:26:32 10° SE
Cosmos 1400 Rocket 3.9 16:18:12 10° SSW 16:22:11 49° WNW 16:26:10 10° N
Cosmos 1606 4.4 16:21:11 10° SW 16:24:37 33° WNW 16:28:06 10° N
Shenzhou-11 Module 3.4 16:22:27 10° SW 16:24:46 25° SSE 16:27:06 10° ESE
Cosmos 2278 Rocket 2.8 16:21:51 10° NNW 16:26:58 33° NE 16:32:03 10° ESE
STARLINK-46 4.1 16:24:46 10° SSW 16:27:02 23° SE 16:29:01 12° E
SMAP 3.1 16:24:56 10° SSE 16:29:30 60° ENE 16:34:06 10° N
YAOGAN 1 4.1 16:28:29 10° E 16:30:54 15° ENE 16:33:20 10° NNE
Cosmos 1666 4.4 16:32:12 10° NE 16:34:06 13° ENE 16:35:59 10° E
Cosmos 2360 Rocket 2.9 16:29:13 10° SW 16:34:45 54° WNW 16:40:21 10° NNE
SeaSat 1 4.3 16:34:20 10° NE 16:35:15 11° NE 16:36:22 10° NNE
ALOS 4.1 16:32:10 10° SSW 16:36:25 35° W 16:40:42 10° NNW
Meteor 1-11 Rocket 4.1 16:30:56 10° N 16:36:40 46° ENE 16:42:22 10° SE
RESURS DK-1 2.9 16:35:20 10° S 16:39:10 39° ESE 16:42:29 13° NE
Cosmos 2333 Rocket 2.3 16:36:17 10° SSW 16:41:57 66° ESE 16:47:41 10° NNE
Cosmos 304 Rocket 3.7 16:38:06 10° NNW 16:42:56 77° ENE 16:47:44 10° SSE
Meteor 1-27 Rocket 4.2 16:38:39 10° SSE 16:43:54 40° E 16:49:16 10° NNE
Cosmos 1733 Rocket 3.1 16:42:12 10° N 16:46:30 52° ENE 16:50:46 10° SSE
USA 215 3.8 16:41:19 11° NE 16:47:23 50° NNW 16:53:38 10° W
Cosmos 2180 Rocket 4.5 16:43:13 10° N 16:49:30 79° E 16:55:50 10° SSE
CENTAUR R/B 3.8 16:42:21 10° NW 16:50:18 61° WSW 16:58:49 10° SSE
ERBS 2.4 16:47:17 10° NW 16:50:37 76° SW 16:53:58 10° SE
Envisat 3.1 16:46:54 10° SE 16:51:48 52° ENE 16:56:45 10° N
NOSS 2 (A) 4.2 16:50:00 10° NNW 16:52:24 44° NE 16:53:25 25° ESE
Cosmos 2237 Rocket 3.0 16:49:22 10° SSE 16:54:21 32° ESE 16:57:53 17° NE
Feng Yun 1-1 Rocket 4.3 16:50:31 10° SSE 16:55:55 78° WSW 17:01:21 10° NNW
Cosmos 1812 2.8 16:55:03 10° S 16:58:48 52° E 17:02:32 10° NNE
Cosmos 2322 Rocket 4.2 16:54:47 10° W 16:59:05 22° NW 17:03:26 10° N
Exosat Rocket 3.7 16:54:23 10° S 16:59:47 54° ESE 17:03:51 15° NE
SL-16 R/B 4.4 17:00:40 10° W 17:04:35 19° NW 17:08:30 10° N
Cosmos 1092 Rocket 4.4 17:01:14 10° SSE 17:07:05 42° E 17:12:55 10° NNE
SKYMED 2 4.0 17:05:22 17° NNE 17:08:26 41° E 17:12:32 10° S
Cosmos 1992 Rocket 4.1 17:03:20 10° NNW 17:08:29 54° ENE 17:13:34 10° SE
Okean O Rocket 4.4 17:05:18 10° SW 17:08:30 20° W 17:11:44 10° NW
Cosmos 1536 2.9 17:05:28 10° N 17:09:24 49° ENE 17:13:17 10° SSE
CZ-4 R/B 1.7 17:05:48 10° SE 17:09:27 38° ENE 17:13:04 10° N
Cosmos 2219 Rocket 2.3 17:07:23 10° SSW 17:12:59 75° WNW 17:18:26 11° NNE
Cosmos 2242 Rocket 3.8 17:09:21 10° SSE 17:13:43 48° E 17:17:13 16° NNE
NOSS 0 Rocket 4.0 17:10:25 10° S 17:16:31 62° ESE 17:21:05 19° NE
Okean-O 2.7 17:14:30 10° S 17:18:56 78° WSW 17:23:23 10° NNW
NOAA 12 4.3 17:15:33 10° S 17:20:52 76° WSW 17:26:12 10° NNW
Cosmos 1862 Rocket 3.5 17:17:21 10° S 17:21:41 88° W 17:26:05 10° N
Cosmos 1703 Rocket 4.1 17:20:01 10° SSE 17:24:06 36° E 17:24:19 36° E
Cosmos 1980 3.7 17:18:42 10° S 17:24:13 59° ESE 17:27:28 25° NE
Cosmos 1500 3.5 17:21:22 10° NNW 17:25:08 65° W 17:28:51 10° S
Lacrosse 5 rocket 1.3 17:21:23 10° SW 17:25:40 70° SE 17:26:52 43° ENE
Cosmos 2297 4.4 17:20:58 10° N 17:26:03 32° NE 17:26:43 31° ENE
NOSS 3-4 (A) 4.3 17:20:47 10° WSW 17:26:35 46° NW 17:31:33 16° NNE
NOSS 3-4 (C) 4.3 17:20:53 10° WSW 17:26:41 46° NW 17:31:39 16° NNE
BREEZE-M DEB (TANK) 1.8 17:22:00 10° WNW 17:26:57 89° SW 17:27:30 55° ESE
ATLAS 3B R/B 4.0 17:22:49 10° NW 17:29:00 40° WSW 17:35:20 10° S
ISS -3.9 17:26:42 10° WNW 17:30:03 68° NNE 17:30:12 67° NE
CZ-4 R/B 4.3 17:25:59 10° SSE 17:30:07 73° ENE 17:34:18 10° N
COSMOS 2428 3.3 17:28:58 10° SW 17:34:30 54° WNW 17:39:28 13° NNE
SL-4 R/B 2.1 17:32:24 10° WSW 17:36:11 61° NNW 17:36:58 49° NNE
Cosmos 1943 Rocket 4.0 17:32:45 10° N 17:34:39 15° NNE 17:34:39 15° NNE
CSL-04 Rocket 3.5 17:33:07 10° SSE 17:38:20 65° ENE 17:43:35 10° N
FengYun 1-2 T 4.4 17:40:25 10° S 17:45:53 75° WSW 17:51:25 10° NNW
YAOGAN 6 3.0 17:42:56 10° S 17:46:23 59° W 17:49:55 10° NNW
Cosmos 1900 4.1 17:41:40 10° NNW 17:46:36 75° NE 17:48:10 43° SE
Nadezhda 4 Rocket 4.4 17:42:26 10° SSW 17:48:43 65° W 17:55:02 10° N
CSL-04 Debris 4.0 17:43:48 10° SSE 17:49:16 81° ENE 17:54:45 10° NNW
Cosmos 1553 Rocket 4.2 17:45:57 10° N 17:52:01 45° ENE 17:52:40 44° E
Cosmos 1428 Rocket 4.4 17:49:52 10° S 17:55:53 61° E 17:59:07 29° NNE
COSMO-SKYMED 1 3.0 17:53:54 23° N 17:56:28 62° WNW 18:00:45 10° SSW
Cosmos 1908 Rocket 3.7 17:52:11 10° NNW 17:56:35 72° W 18:00:56 10° S
Shenzhou-11 Module 4.4 17:57:02 10° WSW 17:58:10 21° WSW 17:58:10 21° WSW
ATLAS 2AS CENTAUR R/B 4.3 17:58:10 10° W 18:05:16 33° NNW 18:10:07 18° NNE
Cosmos 2251 Rocket 4.3 18:00:47 10° SW 18:05:57 50° WNW 18:09:04 23° N
YAOGAN 1 2.9 18:02:12 10° S 18:06:29 65° WSW 18:10:49 10° NNW
NOAA 11 4.0 18:02:10 10° SSE 18:07:37 87° ENE 18:13:08 10° NNW
Cosmos 1666 3.6 18:06:22 10° NNW 18:10:00 47° W 18:13:35 10° SSW
Cosmos 2278 Rocket 3.3 18:05:50 10° NW 18:11:11 44° WSW 18:16:29 10° S
BREEZE-M R/B 4.1 18:07:03 10° WNW 18:10:05 32° NW 18:10:05 32° NW
Cosmos 2026 Rocket 3.8 18:05:31 10° S 18:11:35 89° ESE 18:15:46 22° N
SeaSat 1 3.8 18:14:08 26° N 18:14:08 26° N 18:16:27 10° NNW
RESURS DK-1 4.3 18:13:58 10° WSW 18:17:20 23° NW 18:18:24 21° NNW
SL-16 R/B 2.8 18:18:56 10° S 18:22:46 42° S 18:22:46 42° S
Cosmos 2333 Rocket 4.1 18:22:05 10° WSW 18:26:44 25° NW 18:30:14 15° N
Cosmos 2369 Rocket 4.2 18:22:39 10° N 18:23:51 15° N 18:23:51 15° N
USA 215 4.2 18:28:40 32° NNE 18:29:35 34° N 18:35:17 10° WNW
Okean 1-7 4.3 18:25:29 10° SSW 18:28:17 37° SW 18:28:17 37° SW
Cosmos 2237 Rocket 3.2 18:32:50 10° SW 18:38:16 44° NW 18:39:45 36° NNW
CZ-4 R/B 4.0 18:41:52 10° SW 18:44:37 18° W 18:47:22 10° NW
Lacrosse 5 rocket 4.2 19:01:31 10° W 19:02:32 15° WNW 19:02:32 15° WNW
